TimeEST,TemperatureF,Dew PointF,Humidity,Sea Level PressureIn,VisibilityMPH,Wind Direction,Wind SpeedMPH,Gust SpeedMPH,PrecipitationIn,Events,Conditions,WindDirDegrees,DateUTC
12:54 AM,30.9,28.0,89,30.02,9.0,SSW,8.1,-,N/A,,Clear,200,2014-01-17 05:54:00
1:54 AM,28.9,26.1,89,30.00,8.0,South,6.9,-,N/A,,Clear,190,2014-01-17 06:54:00
2:54 AM,30.0,27.0,88,30.00,9.0,South,5.8,-,N/A,,Clear,190,2014-01-17 07:54:00
3:54 AM,28.9,25.0,85,29.99,9.0,South,4.6,-,N/A,,Clear,180,2014-01-17 08:54:00
4:54 AM,28.0,24.1,85,29.98,9.0,South,5.8,-,N/A,,Clear,190,2014-01-17 09:54:00
5:54 AM,27.0,25.0,92,29.98,7.0,South,4.6,-,N/A,,Clear,180,2014-01-17 10:54:00
6:54 AM,28.9,25.0,85,29.99,9.0,South,4.6,-,N/A,,Clear,170,2014-01-17 11:54:00
8:54 AM,34.0,28.0,79,30.01,10.0,South,6.9,-,N/A,,Clear,190,2014-01-17 13:54:00
9:54 AM,37.9,27.0,65,30.01,10.0,SSW,8.1,-,N/A,,Clear,200,2014-01-17 14:54:00
10:54 AM,41.0,26.1,55,30.02,10.0,SSW,9.2,-,N/A,,Partly Cloudy,210,2014-01-17 15:54:00
11:54 AM,45.0,27.0,49,29.97,10.0,SSE,8.1,-,N/A,,Scattered Clouds,160,2014-01-17 16:54:00
12:54 PM,48.0,28.0,46,29.93,10.0,South,10.4,-,N/A,,Scattered Clouds,190,2014-01-17 17:54:00
1:54 PM,50.0,27.0,41,29.90,10.0,South,9.2,-,N/A,,Scattered Clouds,190,2014-01-17 18:54:00
2:54 PM,51.1,27.0,39,29.88,10.0,South,6.9,-,N/A,,Mostly Cloudy,190,2014-01-17 19:54:00
3:54 PM,51.1,28.0,41,29.88,10.0,SSE,8.1,-,N/A,,Overcast,160,2014-01-17 20:54:00
4:54 PM,48.9,28.9,46,29.88,10.0,SSE,8.1,-,N/A,,Mostly Cloudy,160,2014-01-17 21:54:00
5:54 PM,46.0,30.0,54,29.86,10.0,SE,6.9,-,N/A,,Overcast,140,2014-01-17 22:54:00
6:54 PM,46.0,30.0,54,29.87,10.0,SSE,4.6,-,N/A,,Overcast,150,2014-01-17 23:54:00
7:54 PM,45.0,30.9,58,29.88,10.0,Calm,Calm,-,N/A,,Overcast,0,2014-01-18 00:54:00
8:54 PM,39.9,33.1,77,29.88,10.0,SE,4.6,-,N/A,,Overcast,140,2014-01-18 01:54:00
9:54 PM,43.0,32.0,65,29.86,10.0,SSE,4.6,-,N/A,,Overcast,160,2014-01-18 02:54:00
10:54 PM,43.0,32.0,65,29.85,10.0,SSE,8.1,-,N/A,,Overcast,160,2014-01-18 03:54:00
11:54 PM,43.0,33.1,68,29.83,10.0,South,9.2,-,N/A,,Overcast,170,2014-01-18 04:54:00